GW6343 Weather Reports


time (UTC)temp
C
wind
direction
speed
KPH
gust
KPH
rain 1hr
cm
rain 24hr
cm
rain mn
cm
humidity
%
barometer
mb
20260510164521 25 105 0.0 9.7 0.00 1.70 0.00 77 1016.8
20260510163025 23 60 1.6 9.7 0.00 1.73 0.00 78 1017.0
20260510161505 23 38 3.2 11.3 0.00 1.73 0.00 78 1017.1
20260510160019 23 36 1.6 8.0 0.00 1.75 0.00 80 1017.1
20260510154515 24 65 1.6 4.8 0.00 1.78 0.00 78 1017.2
20260510153025 22 71 3.2 8.0 0.00 1.83 0.00 81 1017.2
20260510150015 21 54 6.4 9.7 0.00 2.06 0.00 85 1017.0
20260510144520 21 72 3.2 8.0 0.00 2.16 0.00 88 1017.1
20260510143023 20 38 1.6 6.4 0.00 2.39 0.00 93 1016.9
20260510141529 20 60 3.2 8.0 0.00 2.57 0.00 94 1017.1
20260510140009 19 80 0.0 4.8 0.00 2.67 0.00 95 1017.1
20260510134513 19 79 0.0 8.0 0.00 2.90 0.00 96 1017.0
20260510133017 18 60 1.6 9.7 0.00 3.33 0.00 96 1017.0
20260510131519 18 63 3.2 6.4 0.00 3.51 0.00 96 1016.6
20260510130026 18 122 3.2 8.0 0.00 3.63 0.00 96 1016.5
20260510124512 18 157 0.0 3.2 0.00 3.71 0.00 96 1016.4
20260510123017 17 94 0.0 3.2 0.00 3.84 0.00 96 1016.1
20260510121518 17 129 0.0 4.8 0.00 4.37 0.00 96 1015.7
20260510120022 17 63 1.6 3.2 0.00 6.71 0.00 96 1015.5
20260510114534 17 60 0.0 4.8 0.00 8.51 0.00 96 1015.4
20260510113014 17 64 0.0 3.2 0.00 8.51 0.00 96 1015.1
20260510111520 17 64 0.0 1.6 0.00 8.51 0.00 96 1014.6
20260510110023 17 65 1.6 3.2 0.00 8.53 0.00 96 1014.2
20260510104532 17 54 1.6 3.2 0.00 8.53 0.00 96 1014.0
20260510094534 17 64 1.6 3.2 0.00 8.53 0.00 96 1013.5
20260510093024 18 62 0.0 3.2 0.00 8.53 0.00 96 1013.4
20260510091514 18 62 0.0 3.2 0.00 8.53 0.00 95 1013.4
20260510090016 18 60 1.6 3.2 0.00 8.53 0.00 95 1013.5
20260510084523 18 64 0.0 4.8 0.00 8.53 0.00 95 1013.4
20260510083025 18 67 1.6 3.2 0.00 8.53 0.00 95 1013.3
20260510081534 18 52 0.0 4.8 0.00 8.61 0.00 95 1013.3
20260510080015 18 68 1.6 4.8 0.00 8.69 0.00 95 1013.3
20260510074521 18 65 1.6 4.8 0.00 8.71 0.00 95 1013.3
20260510073025 18 66 0.0 3.2 0.00 8.71 0.00 95 1013.1
20260510071506 18 66 0.0 3.2 0.00 8.74 0.00 95 1012.8
20260510070016 18 51 0.0 1.6 0.00 8.81 0.00 95 1012.8
20260510064520 18 51 0.0 3.2 0.00 8.81 0.00 95 1013.1
20260510063025 18 64 0.0 1.6 0.00 8.84 0.00 95 1013.2
20260510061529 18 64 0.0 3.2 0.00 8.84 0.00 95 1013.1
20260510060012 18 64 0.0 1.6 0.00 8.84 0.00 95 1013.4
20260510054515 18 96 0.0 3.2 0.00 8.84 0.00 95 1013.4
20260510053021 18 46 0.0 1.6 0.00 8.84 0.00 95 1013.4
20260510051532 18 65 0.0 3.2 0.00 8.86 0.00 95 1013.1
20260510050027 18 319 0.0 3.2 0.00 8.92 0.00 95 1013.5
20260510044514 19 41 0.0 1.6 0.00 8.97 8.92 95 1013.3
20260510043022 19 41 0.0 1.6 0.00 8.99 8.92 95 1013.4
20260510041523 19 41 0.0 1.6 0.00 9.02 8.92 95 1013.1
20260510040026 19 41 0.0 1.6 0.00 9.07 8.92 95 1013.1
20260510034525 18 41 0.0 1.6 0.00 9.07 8.92 95 1013.5
20260510033016 18 156 0.0 1.6 0.00 9.07 8.92 95 1013.4
20260510031531 19 73 0.0 1.6 0.00 9.07 8.92 95 1013.4
20260510030028 19 51 0.0 1.6 0.00 9.07 8.92 95 1013.7
20260510024526 19 55 0.0 1.6 0.00 9.07 8.92 95 1013.5
20260510023028 19 52 0.0 3.2 0.00 9.07 8.92 95 1013.4
20260510021528 19 317 1.6 3.2 0.00 9.07 8.92 95 1013.3
20260510020024 19 165 0.0 1.6 0.00 9.07 8.92 95 1012.7
20260510014523 19 53 0.0 1.6 0.00 9.07 8.92 95 1013.3
20260510013026 19 279 0.0 1.6 0.03 9.07 8.92 95 1013.7
20260510011505 19 58 1.6 3.2 0.03 9.07 8.92 95 1012.6
20260510010005 19 223 0.0 1.6 0.03 9.07 8.92 95 1012.8
20260510004506 18 20 1.6 6.4 0.05 9.07 8.92 95 1012.5
20260510003010 18 51 0.0 4.8 0.03 9.04 8.89 95 1011.8
20260510001514 18 167 1.6 4.8 0.08 9.04 8.89 95 1012.0
20260510000011 18 89 3.2 6.4 0.15 9.12 8.89 94 1011.6
20260509234509 18 70 0.0 1.6 0.18 9.14 8.86 95 1012.3
20260509233009 18 281 0.0 3.2 0.20 9.17 8.86 94 1012.3
20260509231512 18 170 0.0 3.2 0.23 9.14 8.81 94 1011.8
20260509230016 18 148 0.0 1.6 0.25 9.07 8.74 94 1012.1
20260509224504 18 274 0.0 1.6 0.30 9.04 8.69 94 1012.4
20260509223005 18 56 1.6 3.2 0.36 9.12 8.66 94 1012.1
20260509220015 18 326 1.6 3.2 0.20 9.35 8.48 94 1012.4
20260509214520 18 233 1.6 4.8 0.15 9.37 8.38 94 1012.0
20260509213004 18 68 0.0 3.2 0.13 9.42 8.31 94 1011.8
20260509211514 18 236 0.0 1.6 0.20 9.50 8.28 94 1011.4
20260509210015 18 307 1.6 4.8 0.25 9.65 8.28 94 1011.7
20260509204518 18 14 1.6 6.4 0.38 9.78 8.23 94 1011.1
20260509203024 18 186 3.2 4.8 0.48 9.86 8.18 94 1011.7
20260509201506 18 207 1.6 3.2 0.53 9.83 8.08 94 1012.2
20260509200006 18 125 1.6 3.2 0.61 9.86 8.03 94 1011.9
20260509194516 18 65 1.6 6.4 0.53 9.83 7.85 94 1013.6
20260509193021 18 138 0.0 3.2 0.43 10.06 7.70 94 1012.9
20260509191526 18 128 0.0 3.2 0.30 10.34 7.54 94 1012.8
20260509190009 18 153 0.0 3.2 0.18 11.18 7.42 94 1012.8
20260509184516 18 129 0.0 3.2 0.08 12.01 7.32 94 1013.0
20260509183016 18 238 0.0 3.2 0.03 12.45 7.26 94 1012.6
20260509181520 18 105 0.0 3.2 0.03 13.21 7.24 93 1012.7
20260509180007 18 236 0.0 3.2 0.03 14.45 7.24 93 1012.9
20260509174512 18 210 1.6 8.0 0.03 14.81 7.24 93 1012.8
20260509171512 18 125 1.6 6.4 0.03 15.90 7.21 93 1012.9
20260509170012 18 112 0.0 1.6 0.05 15.90 7.21 94 1012.8